EUTELSAT 16A

Last updated on Thu Mar 05 2026 00:02:56 GMT+0000 (Coordinated Universal Time)

1 37836U 11057A 26063.37128004 .00000092 00000+0 00000+0 0 9992 2 37836 0.0574 356.5206 0005504 350.5569 324.6847 1.00271620 6288
UTC large
Height (km)
Speed (km/s)
/
Latitude / Longitude
Inclination (degrees)
Orbital Period (minutes)
Azimuth
Elevation
Range (km)
Doppler Factor

Next 0 passes for location: London (51.5072 / 0.1276)

Sorry there are no passes over London.